Time,TemperatureF,DewpointF,PressureIn,WindDirection,WindDirectionDegrees,WindSpeedMPH,WindSpeedGustMPH,Humidity,HourlyPrecipIn,Conditions,Clouds,dailyrainin,SolarRadiationWatts/m^2,SoftwareType,DateUTC
2015-05-26 00:01:00,61.4,54.5,29.96,ENE,67,0.0,1.0,78,0.00,,---,0.00,0.00,VWS V14.01,2015-05-25 22:01:00,
2015-05-26 00:07:00,61.3,54.4,29.95,ENE,67,1.0,1.0,78,0.00,,---,0.00,0.00,VWS V14.01,2015-05-25 22:07:00,
2015-05-26 00:12:00,61.1,54.2,29.95,ENE,67,0.0,2.0,78,0.00,,---,0.00,0.00,VWS V14.01,2015-05-25 22:12:00,
2015-05-26 00:17:00,61.0,54.5,29.95,ENE,67,0.0,2.0,79,0.00,,---,0.00,0.00,VWS V14.01,2015-05-25 22:17:00,
2015-05-26 00:23:00,60.9,54.3,29.95,ENE,67,0.0,2.0,79,0.00,,---,0.00,0.00,VWS V14.01,2015-05-25 22:23:00,
2015-05-26 00:29:00,60.8,54.3,29.95,ENE,67,0.0,2.0,79,0.00,,---,0.00,0.00,VWS V14.01,2015-05-25 22:29:00,
2015-05-26 00:34:00,60.8,54.3,29.95,ENE,67,0.0,2.0,79,0.00,,---,0.00,0.00,VWS V14.01,2015-05-25 22:34:00,
2015-05-26 00:40:00,60.8,54.3,29.95,ENE,67,0.0,1.0,79,0.00,,---,0.00,0.00,VWS V14.01,2015-05-25 22:40:00,
2015-05-26 00:46:00,60.8,54.3,29.95,ENE,67,0.0,1.0,79,0.00,,---,0.00,0.00,VWS V14.01,2015-05-25 22:46:00,
2015-05-26 00:51:00,60.7,54.2,29.95,ENE,67,1.0,1.0,79,0.00,,---,0.00,0.00,VWS V14.01,2015-05-25 22:51:00,
2015-05-26 00:56:00,60.7,54.2,29.95,ENE,67,0.0,1.0,79,0.00,,---,0.00,0.00,VWS V14.01,2015-05-25 22:56:00,
2015-05-26 01:01:00,60.6,54.1,29.95,ENE,67,0.0,1.0,79,0.00,,---,0.00,0.00,VWS V14.01,2015-05-25 23:01:00,
2015-05-26 01:07:00,60.6,54.4,29.95,ENE,67,1.0,1.0,80,0.00,,---,0.00,0.00,VWS V14.01,2015-05-25 23:07:00,
2015-05-26 01:12:00,60.6,54.4,29.95,ENE,67,0.0,1.0,80,0.00,,---,0.00,0.00,VWS V14.01,2015-05-25 23:12:00,
2015-05-26 01:17:00,60.6,54.4,29.95,ENE,67,0.0,1.0,80,0.00,,---,0.00,0.00,VWS V14.01,2015-05-25 23:17:00,
2015-05-26 01:22:00,60.6,54.4,29.95,ENE,67,0.0,1.0,80,0.00,,---,0.00,0.00,VWS V14.01,2015-05-25 23:22:00,
2015-05-26 01:28:00,60.7,54.5,29.95,ENE,68,1.0,1.0,80,0.00,,---,0.00,0.00,VWS V14.01,2015-05-25 23:28:00,
2015-05-26 01:34:00,60.7,54.2,29.95,WNW,288,3.0,3.0,79,0.00,,---,0.00,0.00,VWS V14.01,2015-05-25 23:34:00,
2015-05-26 01:40:00,60.5,53.6,29.95,NNW,338,2.0,4.0,78,0.00,,---,0.00,0.00,VWS V14.01,2015-05-25 23:40:00,
2015-05-26 01:45:00,60.5,53.6,29.94,NNW,329,1.0,3.0,78,0.00,,---,0.00,0.00,VWS V14.01,2015-05-25 23:45:00,
2015-05-26 01:51:00,60.5,53.6,29.94,NNW,344,2.0,3.0,78,0.00,,---,0.00,0.00,VWS V14.01,2015-05-25 23:51:00,
2015-05-26 01:56:00,60.5,54.0,29.94,NNW,336,2.0,3.0,79,0.00,,---,0.00,0.00,VWS V14.01,2015-05-25 23:56:00,
2015-05-26 02:01:00,60.5,54.0,29.94,NNW,333,1.0,3.0,79,0.00,,---,0.00,0.00,VWS V14.01,2015-05-26 00:01:00,
2015-05-26 02:07:00,60.5,54.0,29.94,NNE,14,0.0,3.0,79,0.00,,---,0.00,0.00,VWS V14.01,2015-05-26 00:07:00,
2015-05-26 02:12:00,60.5,54.3,29.94,NW,314,1.0,3.0,80,0.00,,---,0.00,0.00,VWS V14.01,2015-05-26 00:12:00,
2015-05-26 02:18:00,60.5,54.3,29.94,NNW,342,0.0,3.0,80,0.00,,---,0.00,0.00,VWS V14.01,2015-05-26 00:18:00,
2015-05-26 02:23:00,60.5,54.3,29.94,North,10,1.0,4.0,80,0.00,,---,0.00,0.00,VWS V14.01,2015-05-26 00:23:00,
2015-05-26 02:29:00,60.5,54.0,29.93,NNW,340,1.0,4.0,79,0.00,,---,0.00,0.00,VWS V14.01,2015-05-26 00:29:00,
2015-05-26 02:34:00,60.5,54.0,29.93,NNW,331,2.0,2.0,79,0.00,,---,0.00,0.00,VWS V14.01,2015-05-26 00:34:00,
2015-05-26 02:40:00,60.5,54.0,29.93,WSW,243,2.0,3.0,79,0.00,,---,0.00,0.00,VWS V14.01,2015-05-26 00:40:00,
2015-05-26 02:46:00,60.4,53.5,29.93,WSW,244,3.0,3.0,78,0.00,,---,0.00,0.00,VWS V14.01,2015-05-26 00:46:00,
2015-05-26 02:51:00,60.4,53.2,29.93,West,271,2.0,3.0,77,0.00,,---,0.00,0.00,VWS V14.01,2015-05-26 00:51:00,
2015-05-26 02:56:00,60.2,53.0,29.93,West,277,1.0,4.0,77,0.00,,---,0.00,0.00,VWS V14.01,2015-05-26 00:56:00,
2015-05-26 03:01:00,60.0,52.4,29.93,West,277,3.0,4.0,76,0.00,,---,0.00,0.00,VWS V14.01,2015-05-26 01:01:00,
2015-05-26 03:07:00,59.8,51.9,29.93,WSW,257,1.0,3.0,75,0.00,,---,0.00,0.00,VWS V14.01,2015-05-26 01:07:00,
2015-05-26 03:12:00,59.6,51.7,29.93,WNW,291,2.0,3.0,75,0.00,,---,0.00,0.00,VWS V14.01,2015-05-26 01:12:00,
2015-05-26 03:17:00,59.4,50.8,29.93,NE,49,2.0,7.0,73,0.00,,---,0.00,0.00,VWS V14.01,2015-05-26 01:17:00,
2015-05-26 03:23:00,59.4,50.0,29.93,North,5,6.0,13.0,71,0.00,,---,0.00,0.00,VWS V14.01,2015-05-26 01:23:00,
2015-05-26 03:28:00,59.7,49.9,29.93,North,355,7.0,14.0,70,0.00,,---,0.00,0.00,VWS V14.01,2015-05-26 01:28:00,
2015-05-26 03:34:00,60.1,49.9,29.92,ENE,61,6.0,14.0,69,0.00,,---,0.00,0.00,VWS V14.01,2015-05-26 01:34:00,
2015-05-26 03:39:00,60.4,49.8,29.93,NNW,332,4.0,14.0,68,0.00,,---,0.00,0.00,VWS V14.01,2015-05-26 01:39:00,
2015-05-26 03:44:00,60.6,49.6,29.92,North,5,6.0,14.0,67,0.00,,---,0.00,0.00,VWS V14.01,2015-05-26 01:44:00,
2015-05-26 03:49:00,60.8,49.8,29.92,North,360,11.0,13.0,67,0.00,,---,0.00,0.00,VWS V14.01,2015-05-26 01:49:00,
2015-05-26 03:54:00,60.9,49.9,29.92,NW,316,6.0,14.0,67,0.00,,---,0.00,0.00,VWS V14.01,2015-05-26 01:54:00,
2015-05-26 04:00:00,61.0,50.0,29.92,NNE,19,3.0,14.0,67,0.00,,---,0.00,0.00,VWS V14.01,2015-05-26 02:00:00,
2015-05-26 04:05:00,61.0,50.0,29.92,WNW,292,3.0,13.0,67,0.00,,---,0.00,0.00,VWS V14.01,2015-05-26 02:05:00,
2015-05-26 04:10:00,60.9,50.3,29.92,NNE,28,9.0,13.0,68,0.00,,---,0.00,0.00,VWS V14.01,2015-05-26 02:10:00,
2015-05-26 04:16:00,60.9,50.3,29.92,SW,219,5.0,16.0,68,0.00,,---,0.00,0.00,VWS V14.01,2015-05-26 02:16:00,
2015-05-26 04:21:00,60.7,50.5,29.93,NNE,14,9.0,16.0,69,0.00,,---,0.00,0.00,VWS V14.01,2015-05-26 02:21:00,
2015-05-26 04:26:00,60.6,50.4,29.92,NW,312,5.0,17.0,69,0.00,,---,0.00,0.00,VWS V14.01,2015-05-26 02:26:00,
2015-05-26 04:32:00,60.3,50.1,29.92,WNW,295,4.0,17.0,69,0.00,,---,0.00,0.00,VWS V14.01,2015-05-26 02:32:00,
2015-05-26 04:37:00,60.0,50.2,29.93,ENE,66,15.0,15.0,70,0.00,,---,0.00,0.00,VWS V14.01,2015-05-26 02:37:00,
2015-05-26 04:43:00,59.6,49.8,29.92,North,355,10.0,17.0,70,0.00,,---,0.00,0.00,VWS V14.01,2015-05-26 02:43:00,
2015-05-26 04:48:00,59.3,49.5,29.92,NNW,340,7.0,17.0,70,0.00,,---,0.00,0.00,VWS V14.01,2015-05-26 02:48:00,
2015-05-26 04:53:00,59.0,49.2,29.92,North,360,11.0,16.0,70,0.00,,---,0.00,0.00,VWS V14.01,2015-05-26 02:53:00,
2015-05-26 04:59:00,59.0,49.2,29.92,North,11,15.0,17.0,70,0.00,,---,0.00,0.00,VWS V14.01,2015-05-26 02:59:00,
2015-05-26 05:04:00,58.9,49.2,29.92,ESE,110,11.0,17.0,70,0.00,,---,0.00,0.00,VWS V14.01,2015-05-26 03:04:00,
2015-05-26 05:09:00,58.7,49.0,29.92,NE,36,7.0,18.0,70,0.00,,---,0.00,0.00,VWS V14.01,2015-05-26 03:09:00,
2015-05-26 05:21:00,58.3,48.2,29.92,North,349,11.0,19.0,69,0.00,,---,0.00,0.00,VWS V14.01,2015-05-26 03:21:00,
2015-05-26 05:27:00,58.1,48.0,29.92,NW,325,3.0,18.0,69,0.00,,---,0.00,0.00,VWS V14.01,2015-05-26 03:27:00,
2015-05-26 05:32:00,58.0,47.9,29.92,NNE,14,11.0,18.0,69,0.00,,---,0.00,0.00,VWS V14.01,2015-05-26 03:32:00,
2015-05-26 05:37:00,57.8,47.7,29.92,NNE,21,8.0,20.0,69,0.00,,---,0.00,0.00,VWS V14.01,2015-05-26 03:37:00,
2015-05-26 05:42:00,57.7,47.6,29.92,North,355,18.0,20.0,69,0.00,,---,0.00,0.00,VWS V14.01,2015-05-26 03:42:00,
2015-05-26 05:47:00,57.6,47.5,29.92,North,355,5.0,18.0,69,0.00,,---,0.00,0.00,VWS V14.01,2015-05-26 03:47:00,
2015-05-26 05:52:00,57.5,47.4,29.92,NW,326,9.0,19.0,69,0.00,,---,0.00,0.00,VWS V14.01,2015-05-26 03:52:00,
2015-05-26 05:57:00,57.4,47.3,29.93,East,96,11.0,19.0,69,0.00,,---,0.00,0.00,VWS V14.01,2015-05-26 03:57:00,
2015-05-26 06:02:00,57.4,47.3,29.93,NNW,346,7.0,23.0,69,0.00,,---,0.00,0.00,VWS V14.01,2015-05-26 04:02:00,
2015-05-26 06:08:00,57.3,47.2,29.93,NNW,339,15.0,23.0,69,0.00,,---,0.00,0.00,VWS V14.01,2015-05-26 04:08:00,
2015-05-26 06:13:00,57.3,46.8,29.93,North,355,16.0,20.0,68,0.00,,---,0.00,0.00,VWS V14.01,2015-05-26 04:13:00,
2015-05-26 06:18:00,57.2,46.8,29.93,NNW,336,9.0,20.0,68,0.00,,---,0.00,0.00,VWS V14.01,2015-05-26 04:18:00,
2015-05-26 06:24:00,57.1,46.7,29.93,North,355,11.0,18.0,68,0.00,,---,0.00,5.00,VWS V14.01,2015-05-26 04:24:00,
2015-05-26 06:30:00,57.0,46.6,29.94,NW,317,10.0,21.0,68,0.00,,---,0.00,7.00,VWS V14.01,2015-05-26 04:30:00,
2015-05-26 06:35:00,56.9,46.5,29.94,ENE,67,4.0,21.0,68,0.00,,---,0.00,9.00,VWS V14.01,2015-05-26 04:35:00,
2015-05-26 06:40:00,56.8,46.4,29.94,NNE,26,5.0,15.0,68,0.00,,---,0.00,11.00,VWS V14.01,2015-05-26 04:40:00,
2015-05-26 06:45:00,56.8,46.4,29.94,North,5,12.0,18.0,68,0.00,,---,0.00,12.00,VWS V14.01,2015-05-26 04:45:00,
2015-05-26 06:50:00,56.8,46.4,29.94,NNW,329,10.0,18.0,68,0.00,,---,0.00,14.00,VWS V14.01,2015-05-26 04:50:00,
2015-05-26 06:56:00,56.8,46.4,29.95,North,5,7.0,16.0,68,0.00,,---,0.00,26.00,VWS V14.01,2015-05-26 04:56:00,
2015-05-26 07:01:00,56.8,46.4,29.95,NNW,340,6.0,15.0,68,0.00,,---,0.00,21.00,VWS V14.01,2015-05-26 05:01:00,
2015-05-26 07:06:00,56.8,46.4,29.95,NNE,12,13.0,15.0,68,0.00,,---,0.00,42.00,VWS V14.01,2015-05-26 05:06:00,
2015-05-26 07:11:00,56.9,46.5,29.95,NNW,338,8.0,15.0,68,0.00,,---,0.00,70.00,VWS V14.01,2015-05-26 05:11:00,
2015-05-26 07:16:00,57.0,46.6,29.96,West,271,4.0,13.0,68,0.00,,---,0.00,84.00,VWS V14.01,2015-05-26 05:16:00,
2015-05-26 07:22:00,57.1,46.3,29.96,WNW,300,10.0,18.0,67,0.00,,---,0.00,104.00,VWS V14.01,2015-05-26 05:22:00,
2015-05-26 07:27:00,57.3,46.5,29.96,NNW,348,10.0,18.0,67,0.00,,---,0.00,121.00,VWS V14.01,2015-05-26 05:27:00,
2015-05-26 07:32:00,57.4,46.5,29.96,North,5,7.0,17.0,67,0.00,,---,0.00,139.00,VWS V14.01,2015-05-26 05:32:00,
2015-05-26 07:37:00,57.6,46.7,29.96,NNE,24,10.0,16.0,67,0.00,,---,0.00,160.00,VWS V14.01,2015-05-26 05:37:00,
2015-05-26 07:42:00,57.8,46.5,29.96,North,350,12.0,17.0,66,0.00,,---,0.00,178.00,VWS V14.01,2015-05-26 05:42:00,
2015-05-26 07:48:00,58.2,46.9,29.96,WNW,282,2.0,17.0,66,0.00,,---,0.00,199.00,VWS V14.01,2015-05-26 05:48:00,
2015-05-26 07:53:00,58.6,47.3,29.95,North,350,4.0,14.0,66,0.00,,---,0.00,214.00,VWS V14.01,2015-05-26 05:53:00,
2015-05-26 07:58:00,59.0,47.3,29.95,West,269,4.0,14.0,65,0.00,,---,0.00,234.00,VWS V14.01,2015-05-26 05:58:00,
2015-05-26 08:03:00,59.0,46.8,29.96,North,10,14.0,14.0,64,0.00,,---,0.00,248.00,VWS V14.01,2015-05-26 06:03:00,
2015-05-26 08:08:00,59.5,47.3,29.96,East,85,10.0,15.0,64,0.00,,---,0.00,262.00,VWS V14.01,2015-05-26 06:08:00,
2015-05-26 08:14:00,60.1,47.5,29.95,North,350,7.0,15.0,63,0.00,,---,0.00,281.00,VWS V14.01,2015-05-26 06:14:00,
2015-05-26 08:20:00,60.4,47.3,29.96,NNE,33,5.0,13.0,62,0.00,,---,0.00,299.00,VWS V14.01,2015-05-26 06:20:00,
2015-05-26 08:25:00,60.7,47.2,29.95,North,350,3.0,13.0,61,0.00,,---,0.00,316.00,VWS V14.01,2015-05-26 06:25:00,
2015-05-26 08:30:00,61.2,47.7,29.96,NE,55,4.0,13.0,61,0.00,,---,0.00,330.00,VWS V14.01,2015-05-26 06:30:00,
2015-05-26 08:36:00,61.8,47.8,29.96,North,355,6.0,12.0,60,0.00,,---,0.00,348.00,VWS V14.01,2015-05-26 06:36:00,
2015-05-26 08:41:00,62.2,47.7,29.96,NE,40,3.0,11.0,59,0.00,,---,0.00,364.00,VWS V14.01,2015-05-26 06:41:00,
2015-05-26 08:46:00,62.5,47.5,29.96,North,360,2.0,11.0,58,0.00,,---,0.00,376.00,VWS V14.01,2015-05-26 06:46:00,
2015-05-26 08:51:00,62.8,47.8,29.96,NNW,340,3.0,11.0,58,0.00,,---,0.00,394.00,VWS V14.01,2015-05-26 06:51:00,
2015-05-26 08:56:00,63.0,48.0,29.96,East,90,9.0,10.0,58,0.00,,---,0.00,410.00,VWS V14.01,2015-05-26 06:56:00,
2015-05-26 09:01:00,63.3,48.3,29.96,NNE,15,4.0,12.0,58,0.00,,---,0.00,425.00,VWS V14.01,2015-05-26 07:01:00,
2015-05-26 09:07:00,63.6,48.1,29.96,East,79,3.0,12.0,57,0.00,,---,0.00,439.00,VWS V14.01,2015-05-26 07:07:00,
2015-05-26 09:13:00,63.8,48.3,29.96,North,360,6.0,12.0,57,0.00,,---,0.00,461.00,VWS V14.01,2015-05-26 07:13:00,
2015-05-26 09:19:00,64.1,48.1,29.96,NE,49,5.0,12.0,56,0.00,,---,0.00,480.00,VWS V14.01,2015-05-26 07:19:00,
2015-05-26 09:25:00,64.6,48.6,29.96,NNE,14,5.0,12.0,56,0.00,,---,0.00,497.00,VWS V14.01,2015-05-26 07:25:00,
2015-05-26 09:30:00,65.1,49.0,29.96,North,355,11.0,12.0,56,0.00,,---,0.00,512.00,VWS V14.01,2015-05-26 07:30:00,
2015-05-26 09:35:00,65.4,48.8,29.96,NE,34,3.0,11.0,55,0.00,,---,0.00,527.00,VWS V14.01,2015-05-26 07:35:00,
2015-05-26 09:40:00,65.9,48.8,29.96,NNE,21,3.0,9.0,54,0.00,,---,0.00,545.00,VWS V14.01,2015-05-26 07:40:00,
2015-05-26 09:46:00,66.6,49.0,29.95,NNW,344,5.0,10.0,53,0.00,,---,0.00,561.00,VWS V14.01,2015-05-26 07:46:00,
2015-05-26 09:51:00,67.2,49.5,29.95,North,355,3.0,7.0,53,0.00,,---,0.00,577.00,VWS V14.01,2015-05-26 07:51:00,
2015-05-26 09:56:00,67.7,48.9,29.95,North,9,4.0,8.0,51,0.00,,---,0.00,585.00,VWS V14.01,2015-05-26 07:56:00,
2015-05-26 10:01:00,67.9,49.1,29.95,ENE,57,5.0,8.0,51,0.00,,---,0.00,596.00,VWS V14.01,2015-05-26 08:01:00,
2015-05-26 10:07:00,68.3,49.0,29.95,ENE,57,4.0,9.0,50,0.00,,---,0.00,608.00,VWS V14.01,2015-05-26 08:07:00,
2015-05-26 10:12:00,69.0,49.6,29.95,NW,317,4.0,9.0,50,0.00,,---,0.00,617.00,VWS V14.01,2015-05-26 08:12:00,
2015-05-26 10:18:00,69.8,49.8,29.95,NE,34,2.0,9.0,49,0.00,,---,0.00,633.00,VWS V14.01,2015-05-26 08:18:00,
2015-05-26 10:23:00,69.9,48.8,29.95,North,5,2.0,9.0,47,0.00,,---,0.00,643.00,VWS V14.01,2015-05-26 08:23:00,
2015-05-26 10:29:00,70.8,49.6,29.95,WNW,282,3.0,7.0,47,0.00,,---,0.00,664.00,VWS V14.01,2015-05-26 08:29:00,
2015-05-26 10:34:00,71.1,49.3,29.95,SSE,155,0.0,7.0,46,0.00,,---,0.00,686.00,VWS V14.01,2015-05-26 08:34:00,
2015-05-26 10:39:00,70.8,48.4,29.95,East,96,1.0,6.0,45,0.00,,---,0.00,694.00,VWS V14.01,2015-05-26 08:39:00,
2015-05-26 10:44:00,70.4,49.2,29.95,North,5,2.0,5.0,47,0.00,,---,0.00,631.00,VWS V14.01,2015-05-26 08:44:00,
2015-05-26 10:49:00,71.4,50.1,29.95,NW,319,3.0,6.0,47,0.00,,---,0.00,612.00,VWS V14.01,2015-05-26 08:49:00,
2015-05-26 10:54:00,72.0,50.1,29.95,SW,234,4.0,6.0,46,0.00,,---,0.00,680.00,VWS V14.01,2015-05-26 08:54:00,
2015-05-26 10:59:00,71.6,49.8,29.95,WSW,238,3.0,7.0,46,0.00,,---,0.00,715.00,VWS V14.01,2015-05-26 08:59:00,
2015-05-26 11:05:00,71.6,50.3,29.95,WSW,253,3.0,5.0,47,0.00,,---,0.00,719.00,VWS V14.01,2015-05-26 09:05:00,
2015-05-26 11:10:00,72.5,50.0,29.95,SSE,167,2.0,5.0,45,0.00,,---,0.00,777.00,VWS V14.01,2015-05-26 09:10:00,
2015-05-26 11:15:00,71.6,49.8,29.95,South,173,2.0,5.0,46,0.00,,---,0.00,766.00,VWS V14.01,2015-05-26 09:15:00,
2015-05-26 11:20:00,70.9,51.3,29.95,ESE,102,3.0,5.0,50,0.00,,---,0.00,763.00,VWS V14.01,2015-05-26 09:20:00,
2015-05-26 11:26:00,71.5,50.2,29.95,SW,215,4.0,13.0,47,0.00,,---,0.00,784.00,VWS V14.01,2015-05-26 09:26:00,
2015-05-26 11:32:00,72.0,50.1,29.95,SW,234,10.0,10.0,46,0.00,,---,0.00,802.00,VWS V14.01,2015-05-26 09:32:00,
2015-05-26 11:38:00,71.9,50.0,29.95,WSW,252,3.0,10.0,46,0.00,,---,0.00,823.00,VWS V14.01,2015-05-26 09:38:00,
2015-05-26 11:43:00,72.8,50.8,29.95,West,259,5.0,9.0,46,0.00,,---,0.00,833.00,VWS V14.01,2015-05-26 09:43:00,
2015-05-26 11:48:00,73.9,51.2,29.95,West,276,3.0,8.0,45,0.00,,---,0.00,828.00,VWS V14.01,2015-05-26 09:48:00,
2015-05-26 11:53:00,74.3,50.4,29.94,SW,220,4.0,8.0,43,0.00,,---,0.00,840.00,VWS V14.01,2015-05-26 09:53:00,
2015-05-26 11:59:00,72.8,49.6,29.95,South,176,4.0,9.0,44,0.00,,---,0.00,861.00,VWS V14.01,2015-05-26 09:59:00,
2015-05-26 12:04:00,71.8,49.3,29.95,SSE,163,2.0,9.0,45,0.00,,---,0.00,865.00,VWS V14.01,2015-05-26 10:04:00,
2015-05-26 12:10:00,72.8,50.2,29.94,WNW,294,3.0,6.0,45,0.00,,---,0.00,867.00,VWS V14.01,2015-05-26 10:10:00,
2015-05-26 12:15:00,73.2,50.0,29.94,SW,225,5.0,10.0,44,0.00,,---,0.00,860.00,VWS V14.01,2015-05-26 10:15:00,
2015-05-26 12:21:00,72.5,50.6,29.94,ESE,119,3.0,10.0,46,0.00,,---,0.00,896.00,VWS V14.01,2015-05-26 10:21:00,
2015-05-26 12:27:00,72.1,49.6,29.94,SSE,161,2.0,6.0,45,0.00,,---,0.00,909.00,VWS V14.01,2015-05-26 10:27:00,
2015-05-26 12:32:00,72.3,50.4,29.94,South,184,4.0,10.0,46,0.00,,---,0.00,925.00,VWS V14.01,2015-05-26 10:32:00,
2015-05-26 12:37:00,72.2,50.3,29.94,WSW,246,3.0,10.0,46,0.00,,---,0.00,944.00,VWS V14.01,2015-05-26 10:37:00,
2015-05-26 12:42:00,71.7,49.8,29.94,SSE,163,3.0,10.0,46,0.00,,---,0.00,1009.00,VWS V14.01,2015-05-26 10:42:00,
2015-05-26 12:48:00,72.1,49.6,29.94,SE,131,3.0,10.0,45,0.00,,---,0.00,1056.00,VWS V14.01,2015-05-26 10:48:00,
2015-05-26 12:53:00,72.2,50.9,29.93,ESE,107,6.0,10.0,47,0.00,,---,0.00,255.00,VWS V14.01,2015-05-26 10:53:00,
2015-05-26 12:58:00,72.3,51.0,29.93,SSE,151,5.0,10.0,47,0.00,,---,0.00,1095.00,VWS V14.01,2015-05-26 10:58:00,
2015-05-26 13:03:00,72.3,54.2,29.93,SSW,196,8.0,10.0,53,0.00,,---,0.00,200.00,VWS V14.01,2015-05-26 11:03:00,
2015-05-26 13:08:00,71.5,53.5,29.93,SE,127,4.0,9.0,53,0.00,,---,0.00,302.00,VWS V14.01,2015-05-26 11:08:00,
2015-05-26 13:13:00,70.8,53.8,29.93,ESE,122,1.0,9.0,55,0.00,,---,0.00,302.00,VWS V14.01,2015-05-26 11:13:00,
2015-05-26 13:18:00,71.3,53.8,29.93,SSE,151,4.0,9.0,54,0.00,,---,0.00,1021.00,VWS V14.01,2015-05-26 11:18:00,
2015-05-26 13:23:00,71.3,54.8,29.93,South,175,3.0,8.0,56,0.00,,---,0.00,1021.00,VWS V14.01,2015-05-26 11:23:00,
2015-05-26 13:28:00,71.3,55.3,29.93,ESE,121,4.0,9.0,57,0.00,,---,0.00,406.00,VWS V14.01,2015-05-26 11:28:00,
2015-05-26 13:34:00,71.4,54.9,29.93,SSW,199,7.0,10.0,56,0.00,,---,0.00,995.00,VWS V14.01,2015-05-26 11:34:00,
2015-05-26 13:39:00,71.7,55.2,29.93,SSW,213,7.0,10.0,56,0.00,,---,0.00,1030.00,VWS V14.01,2015-05-26 11:39:00,
2015-05-26 13:44:00,71.9,55.9,29.93,South,183,7.0,10.0,57,0.00,,---,0.00,1088.00,VWS V14.01,2015-05-26 11:44:00,
2015-05-26 13:49:00,71.4,55.4,29.93,ESE,119,5.0,11.0,57,0.00,,---,0.00,290.00,VWS V14.01,2015-05-26 11:49:00,
2015-05-26 13:55:00,70.0,55.0,29.94,SSE,160,12.0,13.0,59,0.00,,---,0.00,1099.00,VWS V14.01,2015-05-26 11:55:00,
2015-05-26 14:01:00,69.6,55.1,29.93,SSE,159,7.0,12.0,60,0.00,,---,0.00,265.00,VWS V14.01,2015-05-26 12:01:00,
2015-05-26 14:07:00,69.4,54.5,29.93,SW,216,5.0,10.0,59,0.00,,---,0.00,1025.00,VWS V14.01,2015-05-26 12:07:00,
2015-05-26 14:12:00,69.7,54.8,29.93,SE,144,6.0,12.0,59,0.00,,---,0.00,998.00,VWS V14.01,2015-05-26 12:12:00,
2015-05-26 14:18:00,69.9,54.9,29.93,SW,224,5.0,12.0,59,0.00,,---,0.00,1028.00,VWS V14.01,2015-05-26 12:18:00,
2015-05-26 14:24:00,70.0,54.6,29.94,ESE,117,4.0,16.0,58,0.00,,---,0.00,953.00,VWS V14.01,2015-05-26 12:24:00,
2015-05-26 14:30:00,70.1,54.7,29.94,South,178,5.0,16.0,58,0.00,,---,0.00,967.00,VWS V14.01,2015-05-26 12:30:00,
2015-05-26 14:41:00,69.5,54.1,29.94,SE,146,8.0,13.0,58,0.00,,---,0.00,462.00,VWS V14.01,2015-05-26 12:41:00,
2015-05-26 14:47:00,68.8,53.9,29.94,East,94,6.0,16.0,59,0.00,,---,0.00,895.00,VWS V14.01,2015-05-26 12:47:00,
2015-05-26 14:52:00,68.6,53.7,29.94,East,83,5.0,16.0,59,0.00,,---,0.00,875.00,VWS V14.01,2015-05-26 12:52:00,
2015-05-26 14:57:00,68.9,54.0,29.94,SE,141,3.0,12.0,59,0.00,,---,0.00,285.00,VWS V14.01,2015-05-26 12:57:00,
2015-05-26 15:03:00,69.2,54.3,29.94,SE,134,5.0,13.0,59,0.00,,---,0.00,863.00,VWS V14.01,2015-05-26 13:03:00,
2015-05-26 15:08:00,69.1,53.7,29.94,SSW,211,6.0,13.0,58,0.00,,---,0.00,466.00,VWS V14.01,2015-05-26 13:08:00,
2015-05-26 15:13:00,69.0,53.6,29.94,South,187,2.0,11.0,58,0.00,,---,0.00,455.00,VWS V14.01,2015-05-26 13:13:00,
2015-05-26 15:18:00,69.1,53.7,29.94,SSW,207,5.0,10.0,58,0.00,,---,0.00,563.00,VWS V14.01,2015-05-26 13:18:00,
2015-05-26 15:24:00,69.4,54.0,29.94,SE,126,10.0,11.0,58,0.00,,---,0.00,993.00,VWS V14.01,2015-05-26 13:24:00,
2015-05-26 15:29:00,69.1,53.7,29.94,ESE,117,6.0,13.0,58,0.00,,---,0.00,404.00,VWS V14.01,2015-05-26 13:29:00,
2015-05-26 15:34:00,68.9,53.5,29.94,SSE,148,6.0,12.0,58,0.00,,---,0.00,1020.00,VWS V14.01,2015-05-26 13:34:00,
2015-05-26 15:39:00,68.9,53.5,29.94,SSW,211,2.0,11.0,58,0.00,,---,0.00,1004.00,VWS V14.01,2015-05-26 13:39:00,
2015-05-26 15:45:00,69.1,54.2,29.94,SSE,167,4.0,11.0,59,0.00,,---,0.00,357.00,VWS V14.01,2015-05-26 13:45:00,
2015-05-26 15:50:00,68.8,53.9,29.94,SSE,148,2.0,11.0,59,0.00,,---,0.00,352.00,VWS V14.01,2015-05-26 13:50:00,
2015-05-26 15:55:00,68.6,54.2,29.94,ESE,106,5.0,9.0,60,0.00,,---,0.00,330.00,VWS V14.01,2015-05-26 13:55:00,
2015-05-26 16:00:00,67.6,53.7,29.95,ESE,109,9.0,12.0,61,0.00,,---,0.00,339.00,VWS V14.01,2015-05-26 14:00:00,
2015-05-26 16:06:00,67.3,53.4,29.95,SSE,161,5.0,12.0,61,0.00,,---,0.00,318.00,VWS V14.01,2015-05-26 14:06:00,
2015-05-26 16:12:00,67.2,53.8,29.95,East,92,2.0,13.0,62,0.00,,---,0.00,339.00,VWS V14.01,2015-05-26 14:12:00,
2015-05-26 16:17:00,67.3,53.8,29.95,South,181,8.0,13.0,62,0.00,,---,0.00,501.00,VWS V14.01,2015-05-26 14:17:00,
2015-05-26 16:23:00,67.6,54.1,29.95,East,85,7.0,10.0,62,0.00,,---,0.00,455.00,VWS V14.01,2015-05-26 14:23:00,
2015-05-26 16:28:00,67.7,54.2,29.95,South,191,2.0,9.0,62,0.00,,---,0.00,462.00,VWS V14.01,2015-05-26 14:28:00,
2015-05-26 16:33:00,67.7,54.2,29.95,SE,136,2.0,12.0,62,0.00,,---,0.00,378.00,VWS V14.01,2015-05-26 14:33:00,
2015-05-26 16:39:00,67.2,54.2,29.95,South,174,5.0,9.0,63,0.00,,---,0.00,406.00,VWS V14.01,2015-05-26 14:39:00,
2015-05-26 16:45:00,67.7,54.2,29.95,East,94,3.0,12.0,62,0.00,,---,0.00,279.00,VWS V14.01,2015-05-26 14:45:00,
2015-05-26 16:51:00,67.1,54.1,29.95,West,260,2.0,13.0,63,0.00,,---,0.00,207.00,VWS V14.01,2015-05-26 14:51:00,
2015-05-26 16:56:00,66.8,54.2,29.95,SSE,150,3.0,13.0,64,0.00,,---,0.00,315.00,VWS V14.01,2015-05-26 14:56:00,
2015-05-26 17:01:00,67.3,54.7,29.95,SE,139,5.0,9.0,64,0.00,,---,0.00,675.00,VWS V14.01,2015-05-26 15:01:00,
2015-05-26 17:07:00,67.9,54.8,29.95,ESE,106,4.0,10.0,63,0.00,,---,0.00,809.00,VWS V14.01,2015-05-26 15:07:00,
2015-05-26 17:13:00,67.9,54.4,29.95,ESE,123,5.0,11.0,62,0.00,,---,0.00,749.00,VWS V14.01,2015-05-26 15:13:00,
2015-05-26 17:18:00,67.6,54.6,29.95,East,100,4.0,11.0,63,0.00,,---,0.00,802.00,VWS V14.01,2015-05-26 15:18:00,
2015-05-26 17:24:00,67.1,54.5,29.95,South,181,3.0,13.0,64,0.00,,---,0.00,271.00,VWS V14.01,2015-05-26 15:24:00,
2015-05-26 17:29:00,66.8,54.7,29.95,SSE,163,6.0,13.0,65,0.00,,---,0.00,780.00,VWS V14.01,2015-05-26 15:29:00,
2015-05-26 17:34:00,66.5,54.8,29.95,ESE,104,5.0,12.0,66,0.00,,---,0.00,197.00,VWS V14.01,2015-05-26 15:34:00,